Weather History for KIZG - July, 2012

Change the Weather History Date:

Thursday, July 5, 2012

  Actual Average Record
Temperature  
Mean Temperature 70 °F -  
Max Temperature 81 °F 78 °F 95 °F (2010)
Min Temperature 60 °F 52 °F 46 °F (2008)
Cooling Degree Days 6    
Growing Degree Days 20 (Base 50)    
Moisture  
Dew Point 62 °F    
Average Humidity 82    
Maximum Humidity 100    
Minimum Humidity 52    
Precipitation  
Precipitation 0.01 in - - ()
Sea Level Pressure  
Sea Level Pressure 29.75 in    
Wind  
Wind Speed 2 mph (NNW)    
Max Wind Speed 13 mph    
Max Gust Speed 22 mph    
Visibility 8 miles    
Events Rain    
Averages and records for this station are not official NWS values.
T = Trace of Precipitation, MM = Missing Value Source: NWS Daily Summary

Daily Weather History Graph

Daily Weather History Graph

Search for Another Location

Airport or City:

Trip Planner

Search our weather history database for the weather conditions in past years. The results will help you decide how hot, cold, wet, or windy it might be!

Date:

Astronomy

Jul. 05, 2012 Rise Set
Actual Time 5:07 AM EDT 8:29 PM EDT
Civil Twilight 4:31 AM EDT 9:04 PM EDT
Nautical Twilight 3:44 AM EDT 9:51 PM EDT
Astronomical Twilight 2:46 AM EDT 10:49 PM EDT
Moon 9:36 PM EDT (7/5) 7:21 AM EDT (7/5)
Length of Visible Light 16h 33m
Length of Day
15h 21m
Waning Gibbous, 95% of the Moon is Illuminated
Jul 5
Waning Gibbous
Jul 10
Last Quarter
Jul 19
New
Jul 26
First Quarter
Aug 1
Full

Hourly Weather History & Observations

Time (EDT) Temp. Heat Index Dew Point Humidity Pressure Visibility Wind Dir Wind Speed Gust Speed Precip Events Conditions
12:32 AM 64.4 °F - 64.4 °F 100% 29.68 in 8.0 mi Calm Calm - N/A   Partly Cloudy
12:54 AM 66.0 °F - 64.0 °F 93% 29.68 in 10.0 mi Calm Calm - 0.00 in Rain Light Rain
1:54 AM 64.0 °F - 64.0 °F 100% 29.68 in 2.5 mi Calm Calm - 0.01 in   Clear
2:01 AM 62.6 °F - 62.6 °F 100% 29.69 in 4.0 mi Calm Calm - N/A   Clear
2:54 AM 63.0 °F - 62.1 °F 97% 29.68 in 7.0 mi Calm Calm - N/A   Clear
3:54 AM 62.1 °F - 61.0 °F 96% 29.68 in 7.0 mi Calm Calm - N/A   Clear
4:18 AM 60.8 °F - 60.8 °F 100% 29.69 in 1.8 mi Calm Calm - N/A   Clear
4:26 AM 62.6 °F - 60.8 °F 94% 29.69 in 4.0 mi Calm Calm - N/A   Clear
4:34 AM 60.8 °F - 60.8 °F 100% 29.69 in 2.5 mi West 3.5 mph - N/A   Partly Cloudy
4:37 AM 60.8 °F - 60.8 °F 100% 29.69 in 1.2 mi West 3.5 mph - N/A   Partly Cloudy
4:46 AM 60.8 °F - 60.8 °F 100% 29.70 in 2.5 mi Calm Calm - N/A   Partly Cloudy
4:54 AM 61.0 °F - 61.0 °F 100% 29.70 in 6.0 mi NW 3.5 mph - N/A   Partly Cloudy
5:52 AM 62.6 °F - 62.6 °F 100% 29.72 in 6.0 mi Calm Calm - N/A   Mostly Cloudy
5:54 AM 62.1 °F - 62.1 °F 100% 29.72 in 6.0 mi WSW 3.5 mph - N/A   Mostly Cloudy
6:08 AM 64.4 °F - 62.6 °F 94% 29.71 in 8.0 mi Calm Calm - N/A   Scattered Clouds
6:54 AM 68.0 °F - 64.9 °F 90% 29.73 in 10.0 mi Calm Calm - N/A   Clear
7:54 AM 72.0 °F - 63.0 °F 73% 29.75 in 10.0 mi Calm Calm - N/A   Clear
8:54 AM 73.9 °F - 62.1 °F 66% 29.76 in 10.0 mi North 9.2 mph - N/A   Clear
9:54 AM 75.0 °F - 61.0 °F 62% 29.77 in 10.0 mi North 11.5 mph 17.3 mph N/A   Scattered Clouds
10:54 AM 77.0 °F - 61.0 °F 58% 29.78 in 10.0 mi North 11.5 mph 18.4 mph N/A   Partly Cloudy
11:54 AM 75.9 °F - 60.1 °F 58% 29.79 in 10.0 mi North 10.4 mph 19.6 mph N/A   Mostly Cloudy
12:54 PM 79.0 °F - 62.1 °F 56% 29.78 in 10.0 mi NNW 12.7 mph 21.9 mph N/A   Clear
1:54 PM 80.1 °F 81.1 °F 61.0 °F 52% 29.78 in 10.0 mi NNW 10.4 mph 18.4 mph N/A   Partly Cloudy
3:54 PM 79.0 °F - 62.1 °F 56% 29.79 in 10.0 mi North 6.9 mph - N/A   Scattered Clouds
4:54 PM 80.1 °F 81.1 °F 61.0 °F 52% 29.79 in 10.0 mi NNW 4.6 mph - N/A   Scattered Clouds
5:54 PM 81.0 °F 81.9 °F 62.1 °F 52% 29.80 in 10.0 mi Variable 3.5 mph - N/A   Clear
6:54 PM 79.0 °F - 62.1 °F 56% 29.81 in 10.0 mi North 6.9 mph - N/A   Clear
7:54 PM 75.0 °F - 61.0 °F 62% 29.83 in 10.0 mi Calm Calm - N/A   Clear
8:54 PM 71.1 °F - 63.0 °F 75% 29.83 in 10.0 mi North 3.5 mph - N/A   Mostly Cloudy
9:54 PM 66.9 °F - 64.0 °F 90% 29.85 in 10.0 mi Calm Calm - N/A   Partly Cloudy
10:54 PM 64.9 °F - 62.1 °F 90% 29.86 in 10.0 mi Calm Calm - N/A   Mostly Cloudy
11:54 PM 63.0 °F - 62.1 °F 97% 29.88 in 10.0 mi Calm Calm - N/A   Clear